Regional Weather Roundup
Issued by NWS

Home | Current Version | Previous Version | Graphics & Text | Print | Product List | Glossary On
Versions: 1 2 3 4 5 6 7 8 9 10 11 12 13 14 15 16 17 18 19 20 21 22 23 24 25 26 27 28 29 30 31 32 33 34 35 36 37 38 39 40 41 42 43 44 45 46 47 48 49 50
129
ASUS43 KIND 050609
RWRIN

WEATHER ROUNDUP FOR INDIANA
NATIONAL WEATHER SERVICE INDIANAPOLIS IN
200 AM EDT THU MAY 05 2016

NOTE: "FAIR" INDICATES FEW OR NO CLOUDS BELOW 12,000 FEET WITH NO
SIGNIFICANT WEATHER AND/OR OBSTRUCTIONS TO VISIBILITY.

* - STATION DOES NOT REPORT WEATHER SUCH AS PRECIPITATION OR FOG.

+ - STATION NOT QUALITY CONTROLLED BY THE NATIONAL WEATHER SERVICE.
    USE DATA WITH CAUTION...ESPECIALLY DEWPOINT AND RELATIVE
    HUMIDITY OBSERVATIONS.

INZ001>003-010>013-019-020-050700-
NORTHWEST INDIANA

CITY           SKY/WX    TMP DP  RH WIND       PRES   REMARKS
GARY /AIRPORT/ CLOUDY    43  41  91 N25G37    29.87R
KNOX *+        CLOUDY    39  36  87 N17G32    29.78S
LA PORTE +     CLOUDY    42  42 100 N23G33    29.80R
6HR MIN TEMP:  41; 6HR MAX TEMP:  42; 6HR PCP:  0.07;

MICHIGAN CITY+ CLOUDY    39  39 100 N24G30    29.83R
MONTICELLO +   LGT RAIN  40  37  87 N20G25    29.78R
6HR MIN TEMP:  40; 6HR MAX TEMP:  45;

RENSSELAER +   DRIZZLE   43  37  81 N14G23    29.81S
VALPARAISO     CLOUDY    40  37  89 N22G33    29.81S
6HR MIN TEMP:  40; 6HR MAX TEMP:  42; 6HR PCP:  0.07;


$$

LMZ046-743>745-050700-
SOUTHERN LAKE MICHIGAN

STATION/POSITION TIME  TEMP    WIND        PRES    WAVE
                       AIR SEA DIR/SP/G            HT
                 (UTC) (F)     (DEG/KT/KT) (MB)    (FT)
BURNS HARBOR     0512   42     360/ 27     1010.5R
MICHIGAN CITY    0500   41     330/ 32/ 35   N/A

$$

INZ004-005-014>016-021>024-050700-
NORTH CENTRAL INDIANA

CITY           SKY/WX    TMP DP  RH WIND       PRES   REMARKS
GOSHEN         CLOUDY    44  41  89 NE12      29.75R
6HR MIN TEMP:  38; 6HR MAX TEMP:  44; 6HR PCP:  0.05;

LOGANSPORT +   CLOUDY    41  37  87 NW14      29.77S FOG
PERU/GRISSOM   LGT RAIN  41  41 100 N12       29.73S
6HR MIN TEMP:  40; 6HR MAX TEMP:  43; 6HR PCP:  0.14;

ROCHESTER +    CLOUDY    43  43 100 N14       29.75S
SOUTH BEND     CLOUDY    41  39  93 N20       29.78R
6HR MIN TEMP:  38; 6HR MAX TEMP:  41; 6HR PCP:  0.30;

WARSAW +       DRIZZLE   41  41 100 N8        29.74R

$$

INZ006>009-017-018-025>027-050700-
NORTHEAST INDIANA

CITY           SKY/WX    TMP DP  RH WIND       PRES   REMARKS
ANGOLA *+      CLOUDY    39  37  93 NE5       29.75R
AUBURN +       MOCLDY    39  36  87 CALM      29.74S
FORT WAYNE     CLOUDY    40  38  93 N3        29.75R
6HR MIN TEMP:  39; 6HR MAX TEMP:  42; 6HR PCP: TRACE;

HUNTINGTON +   CLOUDY    40  38  96 N3        29.73S FOG

$$

INZ028-029-035-036-043>045-051>053-050700-
WEST CENTRAL INDIANA

CITY           SKY/WX    TMP DP  RH WIND       PRES   REMARKS
CRAWFORDSVL +  CLOUDY    41  37  84 NW15G21   29.79F
6HR MIN TEMP:  41; 6HR MAX TEMP:  46;

GREENCASTLE +  CLOUDY    43  37  81 NW8       29.80F
LAFAYETTE      CLOUDY    42  36  79 NW17G23   29.79F
6HR MIN TEMP:  42; 6HR MAX TEMP:  46; 6HR PCP: TRACE;

TERRE HAUTE    CLOUDY    47  38  71 N6        29.82F
6HR MIN TEMP:  47; 6HR MAX TEMP:  53;


$$

INZ030>032-037>040-046>048-054>057-064-065-050700-
CENTRAL INDIANA

CITY           SKY/WX    TMP DP  RH WIND       PRES   REMARKS
CP ATTERBURY + DRIZZLE   43  39  87 NW10G16   29.77F
FRANKFORT +    RAIN      41  39  91 N13G22    29.78F
6HR MIN TEMP:  41; 6HR MAX TEMP:  47; 6HR PCP:  0.02;

GREENWOOD *+   CLOUDY    43  39  87 NW10      29.76F
INDIANAPOLIS   LGT RAIN  43  37  79 NW15G24   29.75F
6HR MIN TEMP:  43; 6HR MAX TEMP:  48; 6HR PCP:  0.01;

-EAGLE CREEK   CLOUDY    43  38  82 NW16G29   29.76F
6HR MIN TEMP:  43; 6HR MAX TEMP:  49; 6HR PCP:  0.02;

KOKOMO *+      CLOUDY    41  36  81 NW13      29.75R
6HR MIN TEMP:  39; 6HR MAX TEMP:  45; 6HR PCP:  0.11;

MARION +       CLOUDY    40  39  95 N7        29.74S FOG
SHELBYVILLE    LGT RAIN  44  39  82 NW12      29.75S
6HR MIN TEMP:  44; 6HR MAX TEMP:  51; 6HR PCP:  0.03;

ZIONSVILLE +   DRIZZLE   40  38  90 NW14G22   29.76S
6HR MIN TEMP:  40; 6HR MAX TEMP:  46; 6HR PCP:  0.06;


$$

INZ033-034-041-042-049-050-058-059-050700-
EAST CENTRAL INDIANA

CITY           SKY/WX    TMP DP  RH WIND       PRES   REMARKS
MUNCIE         CLOUDY    41  38  89 NW9       29.74S FOG
6HR MIN TEMP:  41; 6HR MAX TEMP:  48; 6HR PCP:  0.02;


$$

INZ060-061-067>069-081>083-085>088-050700-
SOUTHWEST INDIANA

CITY           SKY/WX    TMP DP  RH WIND       PRES   REMARKS
EVANSVILLE     CLOUDY    50  43  77 W6        29.83F
6HR MIN TEMP:  50; 6HR MAX TEMP:  58;

HUNTINGBURG *+ CLOUDY    48  43  81 W3        29.82S
6HR MIN TEMP:  46; 6HR MAX TEMP:  57;

WASHINGTON +   CLOUDY    49  46  86 W6        29.81F
6HR MIN TEMP:  49; 6HR MAX TEMP:  55;


$$

INZ062-063-066-070>080-084-089>092-050700-
SOUTH CENTRAL AND SOUTHEAST INDIANA

CITY           SKY/WX    TMP DP  RH WIND       PRES   REMARKS
BEDFORD +      CLOUDY    46  46 100 CALM      29.78F
BLOOMINGTON    CLOUDY    47  39  74 NW6       29.79F
6HR MIN TEMP:  47; 6HR MAX TEMP:  50;

MADISON *+     CLOUDY    45  37  76 W5        29.78F
NORTH VERNON + DRIZZLE   46  43  87 NW10G24   29.76F
SEYMOUR +      DRIZZLE   46  41  81 NW5       29.78F

$$





USA.gov is the U.S. government's official web portal to all federal, state and local government web resources and services.